Location: *
(11.7485°N, 79.7483°E)
Time: 11:46:00
(UTC+00:00)

SL-24 R/B - Pass Details

Date: 22 January 2021
Orbit: 506 x 1002 km, 97.4° (Epoch: 24 February)

Event Time Altitude Azimuth Distance (km) Brightness Sun altitude
Rises 00:21:46 0° 184° (S) 2,595 7.4 -11.1°
Reaches altitude 10° 00:23:56 10° 194° (SSW) 1,714 6.4 -10.6°
Maximum altitude 00:27:17 35° 261° (W) 849 4.3 -9.8°
Drops below altitude 10° 00:30:47 10° 328° (NNW) 1,798 6.0 -9.0°
Enters shadow 00:33:05 - 337° (NNW) 2,735 7.0 -8.4°
